Miscellaneous Local Product
Issued by NWS North Platte, NE

Home | Current Version | Previous Version | Text Only | Print | Product List | Glossary On
Versions: 1 2 3 4 5 6 7 8 9 10 11 12 13 14 15 16 17 18 19 20 21 22 23 24 25 26 27 28 29 30 31 32 33 34 35 36 37 38 39 40 41 42 43 44 45 46 47 48 49 50
000
AXUS43 KLBF 201910
MISLBF


WESTERN AND NORTH CENTRAL NEBRASKA HOURLY WEATHER ROUNDUP
NATIONAL WEATHER SERVICE NORTH PLATTE NE
100 PM CST THU NOV 20 2014

***STATIONS NOT REPORTING VARIABLES SUCH AS SKY/WEATHER OR
PRESSURE ARE PROVIDED BY THE NEBRASKA DEPARTMENT OF
ROADS...RAWS...AND APRS NETWORKS...AND ARE NOT UNDER
NATIONAL WEATHER SERVICE QUALITY CONTROL***

...OBSERVATIONS IN AND NEAR THE EASTERN PANHANDLE OF NEBRASKA...

CITY           SKY/WX    TMP DP  RH WIND       PRES   REMARKS
PINE RIDGE     SUNNY     36  23  59 NW3       29.97F
CHADRON        SUNNY     38  23  55 CALM      29.96F
ALLIANCE       SUNNY     48  23  37 S7        29.95F
SIDNEY         SUNNY     52  21  29 S7        29.98F
WHITECLAY        N/A     39  22  49 S3          N/A
LISCO            N/A     43  15  31 CALM        N/A
BIG SPRINGS      N/A     46  25  43 CALM        N/A
LEWELLEN         N/A     16  -9  32 CALM        N/A
$$

...OBSERVATIONS IN NORTH CENTRAL NEBRASKA...

CITY           SKY/WX    TMP DP  RH WIND       PRES   REMARKS
VALENTINE      SUNNY     30  23  75 S9        30.05F WCI  22
THEDFORD       SUNNY     40  25  55 E5        30.03F
AINSWORTH      SUNNY     31  22  69 S6        30.06F WCI  26
O`NEILL        CLOUDY    24  17  74 CALM      30.13F
ORD            SUNNY     32  19  58 S6        30.10F WCI  26
BROKEN BOW     SUNNY     36  21  54 SE8       30.07F WCI  30
BROWNLEE         N/A     33  24  67 S7          N/A  WCI  27
BREWSTER         N/A     37  22  55 S5          N/A  WCI  33
COMSTOCK         N/A     37  20  50 S8          N/A  WCI  31
$$

...OBSERVATIONS IN SOUTHWEST NEBRASKA AND FAR NORTHEAST COLORADO...

CITY           SKY/WX    TMP DP  RH WIND       PRES   REMARKS
WRAY           FAIR      50  19  28 CALM      30.01F
HOLYOKE        FAIR      48  19  32 CALM      30.00F
IMPERIAL       SUNNY     45  20  36 VRB3      30.01F
OGALLALA       SUNNY     43  24  46 CALM      30.00F
NORTH PLATTE   SUNNY     39  21  48 SE5       30.04F
MCCOOK         SUNNY     37  20  50 VRB5      30.05F WCI  33
LEXINGTON      SUNNY     35  22  59 SE6       30.07F WCI  30
PAXTON           N/A     41  27  56 CALM        N/A
GOTHENBURG       N/A     36  20  52 SE5         N/A  WCI  32
CALLAWAY         N/A     39  26  61 S5          N/A
$$

...SOME WEATHER OBSERVATIONS FROM AROUND THE REGION...

CITY           SKY/WX    TMP DP  RH WIND       PRES   REMARKS
DENVER         MOSUNNY   47  23  38 NE8       29.97F
LARAMIE        MOSUNNY   41  11  29 SW5       29.99F
CHEYENNE       SUNNY     48  12  23 SW14      29.97F
SCOTTSBLUFF    SUNNY     46  20  35 VRB3      29.97F
RAPID CITY     CLOUDY    22  19  89 SE3       29.95F FOG
PIERRE         CLOUDY    21  15  78 SE6       30.11F WCI  13
WINNER         CLOUDY    26  17  68 SE7       30.10F WCI  18
SIOUX FALLS    MOSUNNY   20  10  65 W12       30.18S WCI   8
OMAHA          CLOUDY    29  17  61 N6        30.23F WCI  23
GRAND ISLAND   SUNNY     33  20  58 SE8       30.15F WCI  26
KANSAS CITY    MOSUNNY   36  18  48 VRB3      30.21F
WICHITA        PTSUNNY   48  23  37 E7        30.10F
HAYS           SUNNY     48  25  40 S13       30.07F
LIBERAL        SUNNY     50  28  43 SE7       30.04F
GOODLAND       SUNNY     51  20  29 CALM      30.02F
$$



USA.gov is the U.S. government's official web portal to all federal, state and local government web resources and services.